Location: Arrien
(42.8963°N, 1.0429°E)
Time: 10:34:27
(UTC+00:00)

SL-16 R/B - Pass Details

Date: 11 December 2025
Orbit: 841 x 844 km, 71.0° (Epoch: 21 January)

Event Time Altitude Azimuth Distance (km) Brightness Sun altitude
Rises 19:33:58 0° 206° (SSW) 3,383 5.6 -34.3°
Reaches altitude 10° 19:36:24 10° 207° (SSW) 2,452 4.9 -34.8°
Enters shadow 19:38:12 21° 209° (SSW) 1,784 4.1 -35.1°
